Location: Newark
(48.2308°N, 120.8549°W)
Time: 21:18:03
(UTC+00:00)

Tianhe-1 - Visible Passes

Search period start: 23 June 2021 00:00
Search period end: 03 July 2021 00:00
Orbit: 375 x 386 km, 41.5° (Epoch: 23 June)

Date Brightness Start Highest point End Pass type
(mag) Time Alt. Az. Time Alt. Az. Time Alt. Az.
23 Jun 3.0 10:39:17 14° S 10:40:21 16° SSE 10:42:26 10° ESE visible
24 Jun 3.7 09:40:52 10° SE 09:40:52 10° SE 09:40:54 10° SE visible
24 Jun 2.5 11:13:06 10° SW 11:15:38 23° S 11:18:13 10° ESE visible
25 Jun 2.6 10:14:34 20° S 10:14:46 20° SSE 10:17:09 10° ESE visible
26 Jun 2.3 10:48:18 15° SW 10:50:04 24° S 10:52:39 10° SE visible
27 Jun 2.7 09:50:00 20° SSE 09:50:00 20° SSE 09:51:39 10° ESE visible
28 Jun 2.3 10:23:57 22° SSW 10:24:22 23° S 10:26:55 10° SE visible
29 Jun 2.7 10:58:11 13° SW 10:59:33 16° SSW 11:01:38 10° SSE visible
30 Jun 3.5 10:00:40 12° SE 10:00:40 12° SE 10:00:58 10° SE visible
